STARLINK-30576, 58065

Orbit data source: Space-Track

STARLINK-30576, 58065 is a payload satellite owned by SpaceX/Seattle (US) in LEO that was launched on Fri, 13 Oct 2023 UTC via an FALCON 9 launch vehicle from the Air Force Eastern Test Range (AFETR). Payload-class satellites include a variety of spacecraft equipped with specific instruments for various scientific and technological missions. These include communications satellites like Starlink; space stations such as the ISS; scientific satellites like the Hubble; Earth observation satellites from companies like Planet Labs, Umbra, and HawkEye 360; GPS; miniature CubeSats for education and research; and military/defense satellites.

Loading next visibility...
Identifier
58065, 2023-158Q
Orbit
LEO
Country
Flag of USUS
Related business
Manufacturer
SpaceX/Seattle
Mission
Operational Commercial Communications
Bus & Motor
STARLINK V2M, Unknown motor
Mass
730 kg wet, ~700 kg dry
Launch date (UTC)
2023-10-13 (3 years ago)
Launch vehicle
FALCON 9
Launch site
Air Force Eastern Test Range (AFETR)
Object type
Payload
Rocket body
Debris
Shape & HBR
Box + 2 Pan, 17.7 m
Radar Cross Section
33.884 m², Large (>1 m²)

Expand to show TLE details & history
Last TLE update: 2 days ago

TLE from 2 days ago
0 STARLINK-30576
1 58065U 23158Q   26171.04240182  .00001249  00000-0  54898-4 0  9995
2 58065  43.0026 169.0092 0001309 277.7552  82.3151 15.27580405149221
Epoch: 2026-06-20T01:01Z
TLE epoch observation values (Epoch: 2026-06-20T01:01:03.517Z)
Latitude
-0.00001°
Longitude
-114.51817°
Altitude
482.704 km
Speed
7.626 km/s
True Right ascension
11h 16m 02s
True Declination
0° 00' 00"
Sunlit
Object was in daylight at epoch
Visualization orbit readout
Latitude
Unknown
Longitude
Unknown
Altitude
Unknown
Speed
Unknown
Apparent Right ascension
Unknown
Apparent Declination
Unknown
Sunlit
N/A
Visualization observer readout
Local Sidereal Time
21:29:02
Azimuth
Unknown
Elevation
Unknown
Doppler factor
Unknown
Orbital elements
Apogee altitude
485.891 km
Perigee altitude
484.094 km
Semi-major axis
6,863.13 km
Eccentricity
0.00013
Inclination
43.0026°
RAAN
169.0092°
Arg. of periapsis
277.7552°
True anomaly
82.32997°
Mean anomaly
82.3151°
Eccentric anomaly
82.32253°
Mean motion
3.81733 °/min
Orbital period
94.31 mins
BSTAR
0.000054898
Loading maneuver chart data...
Computing Atmospheric mass density...
Loading historical data...
Loading historical data...
Loading historical data...
Loading historical data...
Loading historical data...
Loading historical data...
Loading historical data...

Documentation

Showing up to 5 results
|